Location: LDNL
(36.4545°S, 141.6685°E)
Time: 14:22:04
(UTC+11:00)

Explorer 7 - Visible Passes

Search period start: 23 January 2022 00:00
Search period end: 02 February 2022 00:00
Orbit: 483 x 674 km, 50.3° (Epoch: 22 January)

Date Brightness Start Highest point End Pass type
(mag) Time Alt. Az. Time Alt. Az. Time Alt. Az.
23 Jan 9.5 01:52:28 18° SSW 01:52:28 18° SSW 01:55:04 10° SSE visible
23 Jan 9.9 03:32:21 10° SSW 03:33:52 12° S 03:35:22 10° SSE visible
23 Jan 9.4 05:12:32 10° SSW 05:15:36 20° SSE 05:18:33 10° ESE visible
24 Jan 9.6 00:18:46 12° SE 00:18:46 12° SE 00:19:07 10° SE visible
24 Jan 9.7 01:54:55 14° SW 01:56:14 15° SSW 01:58:45 10° SSE visible
24 Jan 9.9 03:36:19 10° SSW 03:38:07 12° S 03:39:53 10° SSE visible
24 Jan 8.8 05:16:11 10° SSW 05:19:41 28° SSE 05:23:03 10° E visible
24 Jan 7.2 22:33:47 10° NNW 22:38:18 49° NE 22:42:37 10° ESE visible
25 Jan 8.7 00:14:50 10° W 00:18:55 32° SSW 00:22:49 10° SE visible
25 Jan 10.0 01:58:18 10° SW 02:00:26 13° S 02:02:32 10° SSE visible
25 Jan 9.9 03:40:05 10° SSW 03:42:21 14° SSE 03:44:34 10° SE visible
25 Jan 8.0 05:19:52 10° SW 05:23:42 41° SSE 05:27:20 10° ENE visible
25 Jan 6.9 22:37:24 10° NW 22:42:06 80° NE 22:46:35 10° SE visible
26 Jan 9.2 00:19:17 10° WSW 00:22:58 24° SSW 00:26:30 10° SSE visible
26 Jan 10.1 02:02:50 10° SSW 02:04:41 12° S 02:06:29 10° SSE visible
26 Jan 9.6 03:43:45 10° SSW 03:46:32 17° SSE 03:49:15 10° ESE visible
26 Jan 7.0 05:23:37 10° SW 05:27:38 68° SE 05:31:26 10° ENE visible
26 Jan 7.4 22:41:17 10° WNW 22:45:58 65° SW 22:50:24 10° SE visible
27 Jan 9.6 00:23:52 10° WSW 00:27:05 19° SSW 00:30:11 10° SSE visible
27 Jan 10.1 02:07:06 10° SSW 02:08:56 12° S 02:10:45 10° SSE visible
27 Jan 9.2 03:47:23 10° SSW 03:50:40 22° SSE 03:53:50 10° ESE visible
27 Jan 6.5 05:27:28 10° SW 05:31:28 70° NW 05:35:15 10° NE visible
27 Jan 8.3 22:45:24 10° WNW 22:49:53 43° SSW 22:54:10 10° SE visible
28 Jan 9.9 00:28:31 10° SW 00:31:15 16° SSW 00:33:54 10° SSE visible
28 Jan 10.0 02:11:03 10° SSW 02:13:11 13° S 02:15:15 10° SE visible
28 Jan 8.6 03:51:03 10° SW 03:54:45 30° SSE 03:58:15 10° E visible
28 Jan 7.1 05:31:30 10° WSW 05:35:14 38° NW 05:38:47 10° NNE visible
28 Jan 8.9 22:49:42 10° W 22:53:52 31° SSW 22:57:52 10° SE visible
29 Jan 10.0 00:33:08 10° SW 00:35:28 14° S 00:37:45 10° SSE visible
29 Jan 9.7 02:14:50 10° SSW 02:17:24 15° SSE 02:17:43 15° SSE visible
29 Jan 8.8 04:01:08 20° E 04:01:08 20° E 04:02:30 10° ENE visible
29 Jan 7.8 05:37:53 20° WNW 05:38:54 22° NW 05:41:54 10° N visible
29 Jan 7.2 21:12:10 10° NW 21:16:59 87° NE 21:21:36 10° SE visible
29 Jan 9.4 22:54:09 10° WSW 22:57:56 23° SSW 23:01:33 10° SSE visible
30 Jan 10.0 00:37:35 10° SSW 00:39:43 13° S 00:41:46 10° SSE visible
30 Jan 9.8 02:18:31 10° SSW 02:19:21 13° SSW 02:19:21 13° SSW visible
30 Jan 7.8 21:16:05 10° WNW 21:20:51 62° SW 21:25:24 10° SE visible
30 Jan 9.7 22:58:44 10° WSW 23:02:03 19° SSW 23:05:15 10° SSE visible
31 Jan 9.9 00:41:48 10° SSW 00:43:57 13° S 00:45:49 11° SSE visible
31 Jan 8.5 21:20:13 10° WNW 21:24:47 42° SSW 21:29:09 10° SE visible
31 Jan 9.9 23:03:21 10° SW 23:06:13 16° SSW 23:09:00 10° SSE visible
01 Feb 9.8 00:45:45 10° SSW 00:48:11 14° S 00:48:45 14° SSE visible
01 Feb 9.1 21:24:32 10° W 21:28:46 30° SSW 21:32:52 10° SE visible
01 Feb 9.9 23:07:55 10° SW 23:10:26 14° S 23:12:53 10° SSE visible
